QPF
0.01 0.00 0.00 0.01 0.01 0.00 0.01 0.01 0.02 0.03 0.02 0.02 0.03 0.03 0.02 0.01 0.00 0.01 0.02 0.02 0.02 0.02 0.03 0.06 0.07 0.06 0.06 0.05 0.05 0.04 0.04 0.03 0.03 0.02 0.03 0.03 0.03 0.05 0.06 0.07 0.06 0.03 0.04 0.05 0.06 0.05 0.05 0.05 0.04
0.00 0.00 0.00 0.01 0.00 0.00 0.01 0.01 0.01 0.01 0.02 0.02 0.02 0.01 0.01 0.00 0.01 0.01 0.02 0.02 0.01 0.02 0.02 0.03 0.06 0.05 0.04 0.03 0.03 0.03 0.04 0.03 0.03 0.04 0.04 0.03 0.04 0.05 0.07 0.10 0.07 0.04 0.05 0.07 0.06 0.04 0.04 0.03 0.03
0.00 0.00 0.00 0.00 0.00 0.00 0.01 0.01 0.01 0.02 0.03 0.02 0.01 0.00 0.00 0.01 0.01 0.01 0.02 0.01 0.00 0.01 0.02 0.03 0.05 0.06 0.05 0.04 0.05 0.02 0.02 0.03 0.03 0.04 0.03 0.03 0.03 0.04 0.07 0.13 0.11 0.09 0.07 0.06 0.05 0.04 0.04 0.04 0.04
0.01 0.00 0.00 0.00 0.00 0.00 0.01 0.01 0.02 0.02 0.03 0.02 0.01 0.00 0.01 0.01 0.02 0.01 0.01 0.00 0.00 0.01 0.01 0.02 0.04 0.04 0.04 0.03 0.03 0.01 0.02 0.02 0.03 0.03 0.04 0.04 0.04 0.03 0.05 0.13 0.16 0.13 0.08 0.06 0.05 0.05 0.04 0.04 0.04
0.01 0.00 0.00 0.00 0.00 0.00 0.01 0.02 0.02 0.02 0.02 0.02 0.01 0.01 0.01 0.02 0.02 0.01 0.00 0.00 0.01 0.00 0.01 0.02 0.04 0.04 0.04 0.04 0.04 0.03 0.02 0.02 0.04 0.05 0.05 0.03 0.03 0.04 0.06 0.08 0.08 0.08 0.06 0.05 0.05 0.05 0.05 0.04 0.04
0.02 0.00 0.00 0.00 0.01 0.01 0.01 0.03 0.03 0.02 0.02 0.02 0.01 0.01 0.02 0.02 0.03 0.01 0.00 0.01 0.01 0.00 0.01 0.02 0.04 0.04 0.04 0.05 0.04 0.04 0.02 0.02 0.03 0.03 0.03 0.03 0.05 0.06 0.06 0.06 0.05 0.05 0.06 0.07 0.06 0.05 0.05 0.06 0.06
0.01 0.00 0.00 0.00 0.01 0.01 0.02 0.01 0.01 0.01 0.01 0.01 0.01 0.01 0.02 0.02 0.02 0.01 0.01 0.00 0.00 0.00 0.00 0.01 0.02 0.03 0.04 0.05 0.05 0.06 0.04 0.03 0.03 0.04 0.03 0.04 0.06 0.06 0.05 0.05 0.05 0.06 0.07 0.06 0.05 0.05 0.05 0.06 0.07
0.01 0.00 0.00 0.01 0.02 0.02 0.01 0.01 0.01 0.01 0.01 0.01 0.00 0.00 0.01 0.01 0.01 0.01 0.01 0.01 0.00 0.00 0.01 0.01 0.01 0.01 0.02 0.04 0.06 0.06 0.03 0.03 0.04 0.06 0.08 0.08 0.08 0.08 0.08 0.07 0.09 0.09 0.08 0.06 0.05 0.06 0.05 0.06 0.06
0.00 0.01 0.01 0.01 0.02 0.02 0.01 0.02 0.03 0.02 0.01 0.01 0.00 0.00 0.01 0.01 0.01 0.02 0.02 0.02 0.01 0.01 0.01 0.01 0.00 0.01 0.01 0.01 0.03 0.05 0.04 0.03 0.03 0.04 0.06 0.05 0.05 0.06 0.06 0.06 0.06 0.06 0.06 0.05 0.04 0.05 0.05 0.03 0.03
0.01 0.01 0.02 0.01 0.02 0.02 0.01 0.02 0.03 0.03 0.01 0.01 0.01 0.01 0.02 0.02 0.03 0.03 0.01 0.01 0.01 0.01 0.01 0.01 0.01 0.01 0.01 0.01 0.01 0.01 0.01 0.01 0.01 0.01 0.01 0.01 0.01 0.02 0.03 0.05 0.06 0.05 0.05 0.05 0.05 0.03 0.02 0.01 0.01
0.01 0.02 0.02 0.02 0.01 0.01 0.00 0.00 0.01 0.02 0.01 0.01 0.01 0.01 0.01 0.03 0.03 0.02 0.02 0.01 0.01 0.01 0.01 0.01 0.02 0.02 0.01 0.01 0.01 0.01 0.00 0.00 0.00 0.00 0.00 0.00 0.01 0.01 0.02 0.03 0.03 0.02 0.02 0.02 0.02 0.02 0.01 0.00 0.00
0.01 0.01 0.02 0.02 0.01 0.01 0.01 0.00 0.01 0.01 0.01 0.01 0.01 0.01 0.04 0.05 0.03 0.02 0.01 0.02 0.01 0.01 0.02 0.01 0.01 0.02 0.02 0.01 0.01 0.01 0.00 0.00 0.00 0.01 0.01 0.00 0.00 0.01 0.02 0.02 0.02 0.01 0.01 0.01 0.02 0.01 0.01 0.00 0.00
0.01 0.02 0.01 0.01 0.01 0.02 0.02 0.01 0.01 0.01 0.01 0.01 0.01 0.02 0.04 0.05 0.04 0.03 0.02 0.03 0.02 0.02 0.02 0.01 0.01 0.02 0.02 0.01 0.01 0.02 0.01 0.02 0.02 0.02 0.01 0.00 0.01 0.01 0.03 0.03 0.01 0.01 0.01 0.01 0.01 0.01 0.01 0.01 0.01
0.01 0.02 0.02 0.02 0.02 0.02 0.02 0.02 0.01 0.01 0.01 0.02 0.02 0.02 0.03 0.03 0.04 0.05 0.03 0.03 0.03 0.02 0.02 0.02 0.02 0.03 0.02 0.02 0.02 0.02 0.02 0.03 0.03 0.01 0.01 0.01 0.01 0.01 0.01 0.01 0.00 0.00 0.00 0.00 0.00 0.01 0.01 0.01 0.02
0.02 0.04 0.04 0.03 0.03 0.02 0.02 0.01 0.01 0.01 0.01 0.03 0.05 0.04 0.03 0.02 0.03 0.03 0.03 0.03 0.03 0.03 0.03 0.03 0.03 0.03 0.03 0.02 0.02 0.02 0.02 0.02 0.02 0.01 0.01 0.01 0.01 0.00 0.00 0.00 0.00 0.01 0.00 0.00 0.01 0.01 0.02 0.02 0.02
0.01 0.03 0.03 0.04 0.04 0.02 0.02 0.01 0.01 0.01 0.02 0.03 0.04 0.05 0.04 0.02 0.02 0.03 0.04 0.04 0.05 0.05 0.05 0.03 0.02 0.02 0.04 0.04 0.03 0.02 0.02 0.02 0.02 0.01 0.01 0.01 0.01 0.01 0.01 0.01 0.01 0.01 0.00 0.01 0.01 0.02 0.02 0.01 0.01
0.01 0.01 0.02 0.02 0.03 0.01 0.01 0.01 0.01 0.02 0.02 0.02 0.03 0.03 0.03 0.02 0.02 0.02 0.02 0.03 0.05 0.05 0.04 0.03 0.02 0.02 0.04 0.04 0.03 0.02 0.02 0.03 0.03 0.02 0.01 0.01 0.01 0.01 0.02 0.02 0.01 0.01 0.00 0.01 0.01 0.02 0.02 0.01 0.01
0.01 0.01 0.01 0.01 0.01 0.00 0.01 0.01 0.01 0.01 0.01 0.01 0.01 0.01 0.02 0.02 0.01 0.01 0.02 0.03 0.04 0.03 0.03 0.02 0.02 0.03 0.03 0.02 0.02 0.02 0.01 0.02 0.02 0.02 0.01 0.01 0.01 0.01 0.01 0.01 0.01 0.01 0.00 0.01 0.01 0.02 0.03 0.02 0.02
0.01 0.01 0.01 0.01 0.01 0.00 0.00 0.01 0.01 0.00 0.00 0.01 0.01 0.01 0.02 0.02 0.02 0.02 0.02 0.03 0.04 0.03 0.02 0.01 0.01 0.01 0.02 0.02 0.02 0.02 0.02 0.02 0.02 0.03 0.01 0.01 0.00 0.00 0.01 0.01 0.01 0.00 0.00 0.00 0.01 0.02 0.02 0.02 0.02
0.01 0.01 0.01 0.01 0.01 0.01 0.01 0.00 0.01 0.01 0.01 0.01 0.01 0.01 0.02 0.02 0.02 0.03 0.03 0.03 0.02 0.02 0.02 0.01 0.01 0.00 0.01 0.01 0.02 0.02 0.02 0.02 0.03 0.03 0.02 0.01 0.01 0.01 0.01 0.01 0.01 0.00 0.00 0.00 0.00 0.01 0.02 0.02 0.02
0.01 0.01 0.01 0.01 0.01 0.01 0.01 0.01 0.01 0.01 0.01 0.01 0.01 0.01 0.01 0.02 0.02 0.02 0.01 0.02 0.02 0.02 0.02 0.02 0.01 0.01 0.01 0.01 0.02 0.02 0.03 0.03 0.03 0.04 0.04 0.03 0.02 0.02 0.01 0.01 0.01 0.00 0.00 0.00 0.00 0.01 0.01 0.01 0.02
0.01 0.01 0.01 0.01 0.01 0.02 0.02 0.02 0.01 0.01 0.01 0.01 0.01 0.01 0.01 0.02 0.03 0.03 0.03 0.02 0.02 0.03 0.03 0.02 0.01 0.01 0.01 0.01 0.01 0.01 0.01 0.01 0.02 0.04 0.04 0.03 0.03 0.02 0.01 0.01 0.01 0.01 0.01 0.01 0.01 0.01 0.02 0.01 0.01
0.01 0.01 0.01 0.02 0.02 0.02 0.01 0.01 0.01 0.01 0.01 0.01 0.01 0.01 0.01 0.01 0.02 0.03 0.03 0.03 0.03 0.03 0.03 0.02 0.01 0.01 0.03 0.03 0.01 0.01 0.01 0.01 0.01 0.01 0.02 0.03 0.04 0.03 0.02 0.01 0.01 0.01 0.01 0.01 0.01 0.01 0.03 0.02 0.01
0.01 0.01 0.01 0.01 0.02 0.02 0.01 0.02 0.02 0.01 0.01 0.01 0.01 0.02 0.01 0.01 0.02 0.03 0.03 0.03 0.02 0.02 0.02 0.03 0.02 0.01 0.02 0.02 0.01 0.01 0.01 0.01 0.01 0.01 0.00 0.01 0.02 0.02 0.02 0.01 0.01 0.01 0.01 0.01 0.01 0.01 0.01 0.02 0.01
0.01 0.01 0.01 0.01 0.01 0.02 0.02 0.03 0.03 0.02 0.01 0.01 0.01 0.02 0.01 0.01 0.02 0.03 0.03 0.02 0.01 0.02 0.01 0.02 0.02 0.02 0.02 0.01 0.01 0.01 0.01 0.00 0.01 0.01 0.01 0.01 0.01 0.02 0.02 0.03 0.03 0.02 0.03 0.03 0.02 0.02 0.01 0.02 0.01
0.01 0.01 0.01 0.01 0.01 0.01 0.02 0.04 0.05 0.03 0.02 0.01 0.01 0.02 0.02 0.02 0.03 0.03 0.03 0.02 0.01 0.01 0.01 0.02 0.03 0.04 0.03 0.02 0.03 0.02 0.02 0.01 0.01 0.01 0.00 0.00 0.01 0.01 0.03 0.04 0.04 0.04 0.03 0.04 0.04 0.03 0.04 0.04 0.04
0.01 0.01 0.01 0.01 0.01 0.01 0.03 0.04 0.03 0.03 0.02 0.01 0.01 0.01 0.02 0.02 0.02 0.02 0.01 0.01 0.01 0.01 0.01 0.02 0.04 0.05 0.04 0.04 0.04 0.04 0.03 0.02 0.01 0.01 0.01 0.00 0.00 0.01 0.02 0.03 0.03 0.03 0.03 0.03 0.03 0.04 0.05 0.06 0.05
0.01 0.02 0.02 0.01 0.01 0.02 0.02 0.02 0.02 0.01 0.01 0.01 0.01 0.01 0.01 0.01 0.01 0.02 0.01 0.01 0.01 0.01 0.01 0.02 0.04 0.05 0.05 0.05 0.05 0.05 0.05 0.04 0.03 0.02 0.01 0.01 0.01 0.01 0.01 0.02 0.02 0.02 0.02 0.02 0.01 0.01 0.02 0.02 0.02
0.01 0.02 0.02 0.01 0.01 0.01 0.01 0.01 0.01 0.01 0.01 0.01 0.01 0.02 0.01 0.01 0.02 0.02 0.02 0.02 0.02 0.02 0.02 0.02 0.03 0.05 0.05 0.05 0.04 0.03 0.04 0.05 0.04 0.03 0.02 0.02 0.01 0.01 0.01 0.02 0.02 0.02 0.02 0.01 0.00 0.00 0.01 0.01 0.01
0.01 0.01 0.01 0.01 0.01 0.01 0.01 0.01 0.00 0.00 0.00 0.00 0.02 0.03 0.02 0.02 0.02 0.02 0.03 0.03 0.04 0.03 0.03 0.04 0.05 0.05 0.05 0.05 0.05 0.04 0.04 0.05 0.04 0.04 0.04 0.04 0.03 0.03 0.02 0.02 0.02 0.01 0.01 0.01 0.01 0.01 0.01 0.01 0.01
MSLP
1010.39 1011.31 1012.35 1013.37 1014.28 1014.99 1015.43 1015.62 1015.58 1015.40 1015.17 1014.96 1014.85 1014.83 1014.90 1015.00 1015.07 1015.03 1014.85 1014.52 1014.09 1013.61 1013.15 1012.77 1012.54 1012.44 1012.47 1012.56 1012.65 1012.71 1012.69 1012.59 1012.44 1012.28 1012.15 1012.08 1012.10 1012.19 1012.34 1012.49 1012.62 1012.70 1012.71 1012.68 1012.61 1012.53 1012.47 1012.43 1012.42
1010.83 1011.89 1012.99 1014.00 1014.82 1015.38 1015.64 1015.64 1015.44 1015.13 1014.83 1014.60 1014.49 1014.52 1014.63 1014.78 1014.88 1014.87 1014.71 1014.43 1014.04 1013.61 1013.22 1012.91 1012.74 1012.69 1012.74 1012.83 1012.91 1012.94 1012.89 1012.77 1012.61 1012.44 1012.32 1012.26 1012.29 1012.38 1012.52 1012.66 1012.77 1012.83 1012.84 1012.81 1012.76 1012.70 1012.66 1012.64 1012.66
1011.38 1012.51 1013.62 1014.56 1015.25 1015.63 1015.71 1015.54 1015.20 1014.81 1014.47 1014.24 1014.16 1014.23 1014.38 1014.55 1014.67 1014.67 1014.54 1014.28 1013.94 1013.58 1013.27 1013.04 1012.94 1012.94 1013.02 1013.11 1013.17 1013.17 1013.09 1012.94 1012.76 1012.60 1012.48 1012.43 1012.46 1012.55 1012.67 1012.79 1012.88 1012.93 1012.95 1012.93 1012.90 1012.87 1012.88 1012.90 1012.95
1011.99 1013.15 1014.19 1015.02 1015.55 1015.75 1015.67 1015.36 1014.94 1014.51 1014.16 1013.97 1013.93 1014.03 1014.21 1014.39 1014.50 1014.50 1014.37 1014.14 1013.84 1013.55 1013.32 1013.18 1013.14 1013.19 1013.28 1013.36 1013.40 1013.36 1013.25 1013.08 1012.90 1012.73 1012.63 1012.59 1012.62 1012.71 1012.82 1012.92 1013.00 1013.04 1013.06 1013.07 1013.07 1013.10 1013.15 1013.23 1013.33
1012.62 1013.73 1014.67 1015.35 1015.71 1015.75 1015.54 1015.15 1014.69 1014.26 1013.96 1013.82 1013.84 1013.97 1014.15 1014.32 1014.41 1014.39 1014.25 1014.04 1013.79 1013.56 1013.40 1013.33 1013.35 1013.42 1013.51 1013.58 1013.58 1013.51 1013.37 1013.19 1013.01 1012.87 1012.78 1012.77 1012.82 1012.90 1013.00 1013.09 1013.16 1013.20 1013.23 1013.27 1013.32 1013.40 1013.51 1013.63 1013.77
1013.16 1014.19 1014.99 1015.51 1015.71 1015.63 1015.33 1014.91 1014.47 1014.11 1013.88 1013.81 1013.88 1014.04 1014.22 1014.36 1014.42 1014.36 1014.21 1014.01 1013.79 1013.62 1013.52 1013.51 1013.56 1013.65 1013.73 1013.77 1013.73 1013.63 1013.47 1013.29 1013.13 1013.02 1012.97 1012.99 1013.07 1013.16 1013.26 1013.34 1013.40 1013.44 1013.49 1013.55 1013.64 1013.76 1013.92 1014.09 1014.25
1013.56 1014.46 1015.11 1015.48 1015.55 1015.39 1015.06 1014.66 1014.28 1014.02 1013.89 1013.91 1014.03 1014.21 1014.38 1014.48 1014.50 1014.41 1014.24 1014.05 1013.87 1013.74 1013.69 1013.71 1013.79 1013.87 1013.93 1013.94 1013.87 1013.74 1013.58 1013.42 1013.29 1013.23 1013.24 1013.31 1013.41 1013.52 1013.62 1013.69 1013.74 1013.78 1013.83 1013.90 1014.02 1014.18 1014.37 1014.57 1014.74
1013.75 1014.52 1015.02 1015.26 1015.24 1015.03 1014.71 1014.38 1014.11 1013.96 1013.95 1014.05 1014.22 1014.41 1014.56 1014.63 1014.60 1014.49 1014.32 1014.14 1013.99 1013.91 1013.89 1013.94 1014.02 1014.10 1014.13 1014.10 1014.01 1013.87 1013.72 1013.59 1013.52 1013.52 1013.59 1013.71 1013.85 1013.98 1014.07 1014.14 1014.17 1014.19 1014.24 1014.33 1014.46 1014.64 1014.85 1015.05 1015.22
1013.76 1014.39 1014.75 1014.88 1014.79 1014.58 1014.32 1014.08 1013.93 1013.91 1014.00 1014.18 1014.39 1014.59 1014.71 1014.75 1014.69 1014.56 1014.39 1014.24 1014.12 1014.08 1014.10 1014.17 1014.25 1014.31 1014.32 1014.27 1014.17 1014.04 1013.92 1013.84 1013.83 1013.90 1014.03 1014.19 1014.36 1014.50 1014.60 1014.64 1014.66 1014.67 1014.71 1014.80 1014.94 1015.14 1015.35 1015.55 1015.71
1013.63 1014.11 1014.36 1014.40 1014.28 1014.09 1013.90 1013.77 1013.75 1013.84 1014.03 1014.26 1014.50 1014.69 1014.80 1014.81 1014.73 1014.60 1014.44 1014.32 1014.24 1014.23 1014.28 1014.37 1014.45 1014.50 1014.50 1014.44 1014.35 1014.25 1014.17 1014.15 1014.21 1014.33 1014.52 1014.72 1014.91 1015.06 1015.15 1015.18 1015.18 1015.18 1015.22 1015.31 1015.46 1015.66 1015.88 1016.08 1016.22
1013.43 1013.80 1013.94 1013.91 1013.78 1013.63 1013.51 1013.49 1013.57 1013.76 1014.02 1014.30 1014.55 1014.73 1014.81 1014.80 1014.72 1014.59 1014.46 1014.37 1014.33 1014.35 1014.42 1014.52 1014.60 1014.65 1014.66 1014.61 1014.54 1014.48 1014.46 1014.49 1014.61 1014.79 1015.01 1015.24 1015.44 1015.59 1015.67 1015.70 1015.70 1015.71 1015.75 1015.85 1016.02 1016.23 1016.47 1016.67 1016.80
1013.27 1013.52 1013.58 1013.50 1013.37 1013.26 1013.21 1013.27 1013.44 1013.70 1014.01 1014.30 1014.55 1014.72 1014.79 1014.76 1014.68 1014.56 1014.46 1014.39 1014.38 1014.42 1014.51 1014.61 1014.70 1014.75 1014.77 1014.76 1014.73 1014.71 1014.74 1014.83 1014.99 1015.20 1015.45 1015.69 1015.89 1016.04 1016.13 1016.17 1016.18 1016.21 1016.29 1016.42 1016.62 1016.86 1017.10 1017.32 1017.46
1013.22 1013.37 1013.35 1013.24 1013.11 1013.03 1013.04 1013.17 1013.40 1013.70 1014.02 1014.32 1014.56 1014.71 1014.76 1014.73 1014.65 1014.55 1014.46 1014.41 1014.41 1014.46 1014.54 1014.64 1014.74 1014.80 1014.85 1014.87 1014.89 1014.93 1015.00 1015.13 1015.32 1015.54 1015.79 1016.03 1016.23 1016.38 1016.49 1016.55 1016.61 1016.69 1016.81 1017.00 1017.24 1017.52 1017.80 1018.03 1018.19
1013.33 1013.39 1013.30 1013.16 1013.03 1012.98 1013.03 1013.20 1013.46 1013.78 1014.11 1014.40 1014.61 1014.75 1014.79 1014.76 1014.68 1014.58 1014.50 1014.45 1014.44 1014.48 1014.55 1014.63 1014.73 1014.81 1014.88 1014.95 1015.02 1015.10 1015.22 1015.37 1015.56 1015.78 1016.01 1016.23 1016.43 1016.59 1016.73 1016.85 1016.97 1017.12 1017.32 1017.57 1017.87 1018.19 1018.51 1018.77 1018.95
1013.56 1013.54 1013.40 1013.24 1013.11 1013.08 1013.17 1013.36 1013.63 1013.95 1014.26 1014.53 1014.73 1014.85 1014.89 1014.86 1014.79 1014.70 1014.61 1014.54 1014.51 1014.51 1014.55 1014.61 1014.69 1014.79 1014.89 1015.00 1015.12 1015.25 1015.40 1015.56 1015.74 1015.94 1016.13 1016.33 1016.52 1016.71 1016.88 1017.07 1017.27 1017.51 1017.79 1018.11 1018.47 1018.83 1019.18 1019.48 1019.69
1013.84 1013.76 1013.59 1013.42 1013.31 1013.30 1013.40 1013.60 1013.86 1014.16 1014.45 1014.69 1014.87 1014.99 1015.03 1015.02 1014.96 1014.88 1014.78 1014.69 1014.61 1014.57 1014.56 1014.59 1014.67 1014.77 1014.91 1015.06 1015.23 1015.40 1015.56 1015.72 1015.88 1016.04 1016.20 1016.37 1016.55 1016.75 1016.98 1017.23 1017.52 1017.84 1018.20 1018.59 1018.99 1019.39 1019.77 1020.09 1020.34
1014.09 1013.96 1013.78 1013.63 1013.54 1013.55 1013.66 1013.85 1014.09 1014.36 1014.61 1014.82 1014.99 1015.11 1015.17 1015.19 1015.15 1015.08 1014.98 1014.86 1014.75 1014.66 1014.60 1014.60 1014.66 1014.78 1014.95 1015.15 1015.36 1015.56 1015.74 1015.90 1016.03 1016.15 1016.27 1016.40 1016.58 1016.79 1017.06 1017.37 1017.74 1018.13 1018.55 1018.98 1019.42 1019.83 1020.22 1020.56 1020.83
1014.19 1014.06 1013.91 1013.79 1013.74 1013.78 1013.89 1014.06 1014.26 1014.47 1014.67 1014.85 1015.00 1015.13 1015.22 1015.28 1015.28 1015.24 1015.15 1015.03 1014.88 1014.75 1014.67 1014.64 1014.69 1014.83 1015.03 1015.27 1015.53 1015.76 1015.96 1016.11 1016.21 1016.29 1016.37 1016.48 1016.64 1016.86 1017.16 1017.52 1017.94 1018.38 1018.83 1019.29 1019.72 1020.13 1020.51 1020.85 1021.15
1014.10 1014.00 1013.91 1013.86 1013.87 1013.93 1014.04 1014.17 1014.31 1014.44 1014.57 1014.70 1014.83 1014.97 1015.11 1015.22 1015.29 1015.30 1015.24 1015.13 1014.99 1014.84 1014.73 1014.69 1014.74 1014.90 1015.13 1015.42 1015.72 1015.99 1016.21 1016.36 1016.45 1016.50 1016.55 1016.63 1016.77 1017.00 1017.31 1017.70 1018.14 1018.60 1019.06 1019.50 1019.91 1020.29 1020.65 1020.98 1021.30
1013.80 1013.78 1013.79 1013.83 1013.91 1014.01 1014.10 1014.17 1014.21 1014.24 1014.27 1014.33 1014.44 1014.58 1014.76 1014.95 1015.10 1015.19 1015.20 1015.14 1015.02 1014.88 1014.76 1014.72 1014.79 1014.97 1015.24 1015.57 1015.92 1016.23 1016.48 1016.64 1016.72 1016.76 1016.79 1016.85 1016.98 1017.20 1017.52 1017.91 1018.34 1018.79 1019.23 1019.63 1020.00 1020.34 1020.65 1020.97 1021.30
1013.35 1013.45 1013.59 1013.76 1013.91 1014.03 1014.09 1014.07 1013.99 1013.88 1013.79 1013.76 1013.81 1013.96 1014.19 1014.45 1014.71 1014.90 1015.01 1015.02 1014.95 1014.85 1014.75 1014.73 1014.81 1015.01 1015.31 1015.68 1016.07 1016.43 1016.71 1016.90 1017.00 1017.05 1017.07 1017.13 1017.25 1017.46 1017.76 1018.14 1018.55 1018.97 1019.37 1019.72 1020.03 1020.31 1020.58 1020.87 1021.20
1012.85 1013.11 1013.40 1013.70 1013.93 1014.06 1014.06 1013.92 1013.69 1013.41 1013.17 1013.02 1013.01 1013.15 1013.41 1013.77 1014.13 1014.45 1014.68 1014.79 1014.80 1014.74 1014.68 1014.68 1014.78 1014.99 1015.32 1015.73 1016.15 1016.55 1016.88 1017.11 1017.24 1017.30 1017.34 1017.41 1017.53 1017.74 1018.02 1018.38 1018.76 1019.14 1019.48 1019.77 1020.02 1020.24 1020.46 1020.72 1021.04
1012.41 1012.84 1013.30 1013.72 1014.02 1014.14 1014.05 1013.78 1013.37 1012.91 1012.49 1012.21 1012.12 1012.24 1012.54 1012.97 1013.45 1013.90 1014.25 1014.47 1014.57 1014.58 1014.56 1014.58 1014.69 1014.92 1015.26 1015.68 1016.13 1016.57 1016.94 1017.21 1017.39 1017.49 1017.56 1017.65 1017.79 1017.99 1018.27 1018.59 1018.94 1019.28 1019.57 1019.81 1020.01 1020.18 1020.36 1020.59 1020.88
1012.12 1012.73 1013.34 1013.86 1014.20 1014.29 1014.11 1013.68 1013.09 1012.43 1011.84 1011.42 1011.24 1011.33 1011.66 1012.16 1012.75 1013.32 1013.79 1014.12 1014.31 1014.39 1014.41 1014.45 1014.56 1014.79 1015.12 1015.55 1016.02 1016.48 1016.88 1017.20 1017.43 1017.59 1017.70 1017.82 1017.98 1018.19 1018.46 1018.77 1019.10 1019.40 1019.65 1019.86 1020.01 1020.14 1020.29 1020.48 1020.75
1012.03 1012.78 1013.52 1014.11 1014.47 1014.51 1014.21 1013.63 1012.86 1012.02 1011.27 1010.72 1010.46 1010.52 1010.87 1011.43 1012.10 1012.78 1013.35 1013.79 1014.06 1014.19 1014.25 1014.31 1014.42 1014.63 1014.95 1015.36 1015.83 1016.30 1016.74 1017.10 1017.37 1017.58 1017.75 1017.91 1018.10 1018.32 1018.60 1018.90 1019.20 1019.48 1019.72 1019.90 1020.03 1020.15 1020.27 1020.43 1020.66
1012.10 1012.97 1013.79 1014.42 1014.76 1014.73 1014.33 1013.61 1012.68 1011.70 1010.81 1010.17 1009.84 1009.87 1010.23 1010.83 1011.57 1012.32 1012.99 1013.50 1013.83 1014.02 1014.11 1014.18 1014.28 1014.47 1014.77 1015.16 1015.61 1016.09 1016.53 1016.92 1017.24 1017.50 1017.71 1017.91 1018.13 1018.38 1018.66 1018.96 1019.26 1019.53 1019.76 1019.94 1020.07 1020.18 1020.29 1020.43 1020.63
1012.27 1013.21 1014.06 1014.69 1014.98 1014.88 1014.38 1013.55 1012.52 1011.43 1010.47 1009.76 1009.40 1009.41 1009.78 1010.40 1011.18 1011.98 1012.70 1013.26 1013.65 1013.88 1014.00 1014.07 1014.17 1014.34 1014.61 1014.97 1015.41 1015.87 1016.31 1016.72 1017.07 1017.36 1017.61 1017.85 1018.10 1018.36 1018.66 1018.96 1019.26 1019.54 1019.78 1019.97 1020.11 1020.23 1020.34 1020.47 1020.64
1012.42 1013.38 1014.22 1014.81 1015.04 1014.87 1014.30 1013.41 1012.32 1011.20 1010.21 1009.48 1009.12 1009.13 1009.49 1010.12 1010.91 1011.73 1012.47 1013.07 1013.49 1013.75 1013.90 1013.99 1014.09 1014.25 1014.50 1014.84 1015.24 1015.68 1016.12 1016.53 1016.89 1017.20 1017.48 1017.74 1018.01 1018.29 1018.59 1018.91 1019.21 1019.50 1019.75 1019.96 1020.13 1020.27 1020.39 1020.52 1020.67
1012.46 1013.39 1014.18 1014.69 1014.85 1014.62 1014.01 1013.11 1012.03 1010.94 1009.99 1009.30 1008.95 1008.98 1009.34 1009.96 1010.73 1011.54 1012.27 1012.88 1013.32 1013.61 1013.79 1013.90 1014.03 1014.19 1014.44 1014.76 1015.14 1015.55 1015.97 1016.36 1016.71 1017.03 1017.32 1017.60 1017.88 1018.17 1018.48 1018.80 1019.11 1019.41 1019.67 1019.91 1020.10 1020.27 1020.42 1020.56 1020.71
1012.33 1013.19 1013.87 1014.29 1014.38 1014.10 1013.49 1012.62 1011.62 1010.61 1009.75 1009.14 1008.86 1008.91 1009.27 1009.86 1010.59 1011.35 1012.06 1012.65 1013.10 1013.42 1013.63 1013.79 1013.95 1014.15 1014.40 1014.71 1015.07 1015.46 1015.85 1016.22 1016.56 1016.87 1017.15 1017.43 1017.72 1018.01 1018.32 1018.64 1018.96 1019.26 1019.54 1019.79 1020.01 1020.21 1020.38 1020.55 1020.71
Thickness
5794 5793 5790 5777 5753 5732 5729 5737 5745 5746 5748 5753 5756 5753 5746 5741 5737 5734 5751 5759 5760 5761 5761 5761 5761 5761 5760 5760 5760 5759 5759 5759 5758 5758 5757 5757 5757 5756 5755 5755 5755 5754 5754 5754 5754 5754 5754 5754 5754
5793 5791 5780 5761 5735 5718 5726 5740 5743 5748 5753 5756 5756 5752 5746 5743 5748 5749 5753 5757 5759 5759 5759 5759 5759 5759 5758 5757 5757 5757 5756 5756 5755 5755 5754 5754 5753 5753 5753 5754 5754 5751 5751 5750 5750 5750 5750 5750 5750
5792 5787 5766 5746 5729 5721 5730 5742 5746 5752 5757 5756 5749 5748 5745 5742 5748 5750 5754 5756 5756 5756 5756 5756 5756 5755 5755 5754 5754 5753 5753 5753 5752 5752 5751 5751 5750 5750 5750 5751 5751 5748 5747 5747 5747 5747 5747 5746 5746
5785 5771 5757 5738 5729 5734 5740 5745 5749 5750 5752 5753 5748 5741 5744 5750 5751 5752 5754 5755 5754 5753 5753 5753 5752 5752 5752 5751 5751 5750 5749 5749 5749 5748 5747 5747 5747 5746 5746 5746 5745 5744 5744 5743 5743 5743 5743 5742 5742
5778 5758 5739 5726 5731 5739 5745 5750 5751 5747 5746 5747 5745 5736 5737 5748 5753 5753 5752 5752 5750 5750 5750 5749 5749 5749 5748 5748 5747 5746 5746 5745 5744 5744 5743 5743 5743 5742 5742 5741 5740 5740 5740 5739 5739 5739 5738 5738 5738
5760 5747 5724 5718 5729 5739 5745 5750 5750 5745 5743 5744 5741 5735 5735 5746 5748 5748 5749 5748 5748 5747 5746 5746 5745 5745 5744 5744 5743 5742 5742 5741 5740 5740 5739 5739 5738 5738 5737 5737 5736 5736 5736 5735 5735 5735 5734 5734 5733
5752 5737 5724 5724 5725 5733 5743 5749 5745 5741 5739 5741 5743 5732 5734 5741 5745 5746 5745 5745 5744 5743 5742 5742 5741 5741 5740 5739 5739 5738 5737 5737 5736 5735 5735 5734 5734 5733 5733 5732 5732 5732 5731 5731 5730 5730 5729 5729 5729
5757 5738 5726 5723 5724 5730 5743 5747 5747 5743 5739 5746 5744 5732 5730 5739 5743 5743 5741 5740 5739 5739 5738 5738 5737 5736 5736 5735 5734 5733 5733 5732 5731 5731 5730 5729 5729 5728 5728 5728 5727 5727 5726 5726 5725 5725 5724 5724 5724
5759 5730 5719 5725 5726 5732 5743 5742 5744 5747 5742 5741 5742 5740 5741 5743 5741 5738 5735 5734 5734 5734 5734 5733 5733 5732 5731 5730 5730 5729 5728 5727 5726 5725 5724 5724 5723 5723 5723 5723 5723 5722 5722 5721 5720 5720 5719 5719 5719
5746 5723 5728 5737 5739 5738 5741 5740 5740 5738 5733 5733 5735 5739 5741 5739 5736 5732 5729 5728 5728 5728 5729 5729 5729 5728 5727 5726 5725 5724 5723 5722 5721 5721 5720 5719 5719 5718 5718 5718 5717 5717 5716 5716 5715 5715 5714 5714 5713
5744 5731 5737 5741 5744 5743 5739 5738 5740 5733 5726 5731 5732 5733 5734 5733 5731 5729 5727 5727 5726 5726 5726 5726 5725 5724 5723 5722 5720 5719 5718 5718 5717 5716 5715 5715 5714 5714 5713 5712 5712 5712 5711 5710 5710 5709 5709 5708 5708
5740 5739 5741 5742 5745 5741 5738 5736 5732 5731 5732 5738 5738 5736 5732 5729 5727 5726 5725 5725 5724 5723 5723 5723 5722 5721 5719 5718 5716 5715 5714 5714 5713 5711 5711 5710 5709 5709 5708 5707 5706 5706 5706 5705 5705 5704 5703 5703 5703
5736 5736 5741 5743 5742 5740 5737 5732 5730 5729 5735 5737 5735 5731 5728 5727 5726 5726 5725 5724 5722 5720 5719 5719 5719 5718 5716 5714 5713 5711 5710 5709 5708 5707 5707 5706 5705 5704 5703 5702 5702 5701 5701 5701 5700 5699 5699 5699 5698
5735 5735 5735 5737 5736 5736 5730 5727 5727 5726 5731 5730 5727 5725 5724 5724 5723 5722 5721 5719 5718 5717 5717 5717 5716 5714 5713 5711 5709 5708 5707 5706 5705 5704 5703 5702 5701 5700 5699 5698 5697 5697 5697 5696 5696 5695 5694 5693 5693
5736 5727 5725 5728 5730 5729 5726 5716 5719 5726 5726 5723 5721 5721 5720 5721 5721 5720 5719 5718 5717 5716 5715 5714 5713 5712 5710 5708 5706 5705 5704 5703 5701 5700 5699 5699 5698 5697 5696 5694 5693 5693 5692 5692 5691 5690 5690 5689 5688
5725 5714 5705 5718 5724 5725 5716 5702 5717 5723 5720 5716 5716 5716 5716 5717 5718 5719 5719 5717 5716 5714 5712 5712 5712 5709 5706 5704 5703 5701 5700 5699 5698 5697 5696 5695 5694 5693 5692 5691 5690 5689 5689 5688 5687 5686 5684 5683 5682
5705 5697 5699 5708 5720 5718 5710 5702 5714 5718 5716 5711 5711 5711 5712 5712 5714 5716 5716 5716 5715 5713 5711 5709 5708 5705 5703 5701 5699 5698 5696 5695 5694 5694 5693 5692 5691 5690 5689 5688 5687 5686 5685 5684 5684 5681 5680 5678 5677
5694 5695 5696 5699 5711 5711 5703 5701 5709 5712 5712 5709 5708 5708 5708 5709 5711 5714 5714 5714 5713 5711 5709 5707 5705 5702 5700 5697 5695 5693 5692 5692 5691 5690 5690 5689 5688 5687 5686 5684 5684 5683 5682 5680 5679 5677 5676 5674 5673
5703 5697 5693 5699 5710 5705 5699 5699 5704 5708 5707 5706 5705 5705 5706 5707 5711 5712 5712 5712 5710 5708 5706 5704 5701 5699 5697 5694 5691 5688 5687 5687 5687 5687 5687 5686 5685 5684 5683 5681 5680 5679 5678 5677 5676 5674 5671 5669 5669
5700 5692 5691 5697 5706 5702 5695 5696 5703 5706 5707 5708 5707 5705 5706 5706 5707 5708 5708 5708 5707 5705 5704 5701 5699 5697 5695 5693 5690 5688 5686 5685 5685 5684 5683 5683 5682 5681 5680 5679 5677 5676 5674 5673 5672 5671 5668 5666 5665
5695 5691 5691 5691 5697 5697 5692 5687 5695 5702 5706 5707 5708 5707 5707 5707 5705 5706 5705 5705 5704 5703 5702 5701 5697 5695 5693 5691 5688 5686 5683 5681 5680 5679 5679 5679 5679 5678 5677 5676 5675 5674 5672 5670 5669 5668 5666 5662 5661
5687 5699 5697 5693 5682 5674 5682 5665 5684 5692 5696 5701 5702 5703 5704 5706 5706 5705 5704 5703 5702 5702 5701 5699 5696 5694 5691 5689 5687 5683 5679 5677 5677 5677 5676 5676 5676 5675 5675 5674 5672 5671 5670 5668 5667 5665 5664 5661 5658
5694 5701 5695 5689 5680 5671 5674 5666 5675 5687 5688 5695 5699 5701 5703 5704 5704 5704 5704 5703 5702 5701 5699 5697 5695 5692 5690 5688 5685 5682 5679 5677 5676 5675 5674 5673 5673 5673 5672 5671 5670 5669 5667 5666 5664 5662 5661 5659 5657
5700 5691 5683 5674 5668 5658 5669 5665 5667 5677 5686 5694 5699 5700 5701 5702 5703 5703 5703 5701 5700 5699 5697 5695 5692 5690 5688 5686 5684 5681 5678 5675 5673 5672 5671 5670 5670 5670 5670 5669 5668 5667 5665 5664 5662 5661 5659 5657 5655
5690 5672 5654 5652 5646 5651 5667 5663 5667 5686 5692 5694 5697 5698 5699 5700 5700 5699 5698 5698 5697 5696 5694 5693 5691 5688 5686 5683 5681 5679 5677 5675 5673 5671 5669 5668 5667 5667 5667 5667 5666 5665 5664 5662 5661 5658 5657 5655 5653
5680 5671 5651 5642 5640 5648 5660 5657 5672 5690 5694 5696 5697 5697 5697 5697 5697 5697 5697 5696 5695 5694 5693 5691 5689 5686 5684 5681 5679 5678 5676 5674 5672 5671 5670 5668 5668 5667 5667 5665 5664 5663 5662 5660 5658 5657 5655 5653 5652
5674 5665 5667 5651 5648 5643 5650 5661 5676 5689 5689 5691 5692 5693 5692 5693 5693 5694 5694 5694 5692 5691 5690 5689 5687 5685 5682 5680 5678 5676 5674 5672 5671 5670 5669 5668 5667 5667 5666 5665 5663 5661 5660 5658 5656 5654 5653 5651 5650
5680 5667 5653 5647 5638 5634 5644 5651 5658 5674 5679 5682 5683 5685 5686 5688 5688 5689 5689 5689 5689 5688 5687 5685 5684 5683 5681 5678 5676 5674 5672 5671 5670 5668 5667 5666 5666 5666 5664 5663 5661 5659 5658 5656 5654 5652 5651 5649 5647
5667 5663 5652 5642 5641 5632 5631 5645 5670 5672 5676 5677 5679 5681 5683 5684 5684 5684 5684 5684 5684 5684 5682 5681 5679 5678 5676 5675 5673 5672 5670 5669 5667 5666 5665 5665 5664 5663 5662 5661 5659 5657 5656 5654 5652 5651 5649 5647 5645
5671 5663 5651 5641 5636 5633 5630 5642 5674 5673 5675 5675 5675 5677 5679 5680 5680 5680 5679 5678 5678 5677 5677 5676 5675 5674 5673 5673 5671 5669 5668 5666 5665 5664 5663 5663 5662 5661 5660 5658 5656 5655 5653 5652 5650 5648 5646 5644 5642